Terminal Aerodrome Forecast
Issued by NWS Midland/Odessa, TX

Home | Current Version | Previous Version | Text Only | Print | Product List | Glossary On
Versions: 1 2 3 4 5 6 7 8 9 10 11 12 13 14 15 16 17
000
FTUS44 KMAF 291100
TAFMAF
TAF
KMAF 291122Z 2912/3012 02010KT P6SM BKN250
     FM291500 05020G30KT P6SM BKN070
     FM300000 06017G24KT P6SM OVC060=

USA.gov is the U.S. government's official web portal to all federal, state and local government web resources and services.